[[[{"header":{"parameterUnit":"kt","parameterCategory":2,"dx":1,"dy":1,"la1":30.253999710083008,"la2":30.299108505249023,"lo1":-89.0895004272461,"lo2":-89.04439544677734,"nx":28,"ny":28,"refTime":"2022-09-22T21:00:00:Z","depth":0,"parameterNumber":1,"parameterNumberName":"U-component_of_WINDS"},"data":[7.9862,8.0118,8.0158,8.047,8.0559,8.078,8.0872,8.0996,8.1105,8.1376,8.154,8.1609,8.1736,8.1944,8.2125,8.2152,8.2226,8.2289,8.231,8.1991,8.195,8.1911,8.185,8.2304,8.2305,8.2632,8.2635,8.2638,7.9629,7.9719,7.9895,8.0092,8.0244,8.0209,8.0364,8.0494,8.0694,8.0831,8.0993,8.1236,8.1434,8.1542,8.174,8.1864,8.1859,8.1915,8.1906,8.1927,8.1589,8.1524,8.1916,8.1916,8.1916,8.1916,8.1916,8.1916,7.9215,7.9367,7.9508,7.97,7.981,7.9943,8.0096,8.0174,8.0349,8.0557,8.0572,8.0799,8.0945,8.1203,8.13,8.1481,8.1426,8.1501,8.1519,8.1537,8.1551,8.1073,8.1517,8.1516,8.1515,8.1514,8.1514,0,7.8924,7.8946,7.9116,7.93,7.9441,7.9588,7.9729,7.9825,7.9886,8.0028,8.0237,8.0365,8.0619,8.0822,8.1016,8.1103,8.108,8.1083,8.1134,8.1129,8.1101,8.1119,8.0565,8.1069,8.1066,8.1063,8.1061,8.106,7.8509,7.8681,7.8847,7.8961,7.9047,7.9232,7.9351,7.9391,7.9516,7.9697,7.9831,8.0035,8.0198,8.053,8.0622,8.0813,8.0803,8.0992,8.0832,8.0821,8.0807,8.0795,8.0813,8.1021,8.1026,8.103,8.1033,0,7.8272,7.8332,7.8611,7.8758,7.8801,7.898,7.9107,7.9262,7.932,7.9542,7.9596,7.9689,7.9895,7.9956,8.0205,8.023,8.0534,8.052,8.0483,8.0484,8.0658,8.0641,8.1214,8.1292,8.0823,8.0827,8.0831,0,7.794,7.8165,7.8242,7.8401,7.8654,7.8686,7.8936,7.901,7.9132,7.9307,7.9289,7.9454,7.9505,7.9681,7.972,7.9978,8.0025,8.006,8.0067,8.0061,8.0056,8.0127,8.0105,8.0077,8.0074,8.0071,8.0069,0,7.7561,7.7865,7.8123,7.8202,7.8381,7.8502,7.8583,7.8719,7.8835,7.8996,7.9072,7.9259,7.9361,7.9507,7.9553,7.9443,7.9871,7.9728,7.9907,7.9906,7.9996,7.999,8.0484,8.0065,8.0064,8.0063,8.0062,0,7.7301,7.7459,7.7824,7.7971,7.805,7.8221,7.8403,7.8563,7.8709,7.8742,7.887,7.8864,7.9093,7.8947,7.9265,7.9108,7.9211,7.9265,7.9279,7.9301,7.9136,7.9405,7.987,7.9921,7.9325,7.9319,7.9314,0,7.6851,7.7234,7.7261,7.7609,7.7793,7.7757,7.7949,7.8076,7.8136,7.8304,7.8371,7.8563,7.8467,7.8535,7.8684,7.8762,7.8967,7.8736,7.8982,7.899,7.8942,7.9371,7.9424,7.9762,7.9236,7.9244,7.925,0,7.6508,7.6718,7.6777,7.6868,7.7039,7.7193,7.7413,7.7607,7.7717,7.7862,7.8048,7.8319,7.8258,7.837,7.8384,7.8537,7.883,7.8451,7.8455,7.8517,7.9202,7.9251,7.9308,7.8806,7.8816,7.8823,7.9188,0,7.6102,7.6299,7.6463,7.6661,7.6789,7.7008,7.7066,7.7193,7.7192,7.7249,7.7524,7.7644,7.7844,7.7924,7.7925,7.8254,7.8208,7.814,7.8001,7.8282,7.8404,7.8453,7.7814,7.7811,7.7808,7.7805,0,0,7.5656,7.5938,7.5959,7.617,7.6279,7.6236,7.6466,7.6568,7.6774,7.6851,7.6774,7.7172,7.7274,7.7601,7.7693,7.7775,7.784,7.7738,7.8148,7.8185,7.8221,7.835,7.8401,7.7799,7.7798,7.7797,7.7796,0,7.5517,7.5615,7.5839,7.5945,7.61,7.6147,7.6202,7.6349,7.6395,7.6663,7.6625,7.6797,7.7113,7.7225,7.7324,7.7701,7.7663,7.7758,7.794,7.8114,7.8156,7.8193,7.8328,7.8376,7.7789,7.7789,7.7789,0,7.5189,7.5295,7.5408,7.565,7.5752,7.5942,7.581,7.6016,7.6159,7.6102,7.6367,7.6443,7.6597,7.6899,7.7036,7.697,7.7498,7.7341,7.7363,7.7379,7.7551,7.7601,7.7646,7.7053,7.705,7.7048,0,0,7.5062,7.5243,7.5368,7.5624,7.5691,7.5763,7.587,7.5878,7.6015,7.607,7.6164,7.6301,7.6485,7.6606,7.6782,7.7104,7.714,7.7248,7.7283,7.7311,7.7342,7.7521,7.7571,7.7037,7.7037,7.7037,0,0,7.5001,7.5154,7.5126,7.543,7.556,7.5701,7.5856,7.5827,7.599,7.5971,7.5997,7.6035,7.6317,7.6392,7.6243,7.6733,7.6595,7.6632,7.6673,7.6718,7.6752,7.6728,7.6125,0,0,0,0,0,7.4886,7.5134,7.5108,7.5167,7.5472,7.5715,7.5755,7.578,7.5681,7.5804,7.5878,7.5829,7.6318,7.6186,7.6246,7.6411,7.69,7.6924,7.6947,7.7077,7.7123,7.7162,0,0,0,0,0,0,7.4909,7.4981,7.5101,7.5251,7.532,7.5706,7.5544,7.5558,7.5668,7.5655,7.5816,7.5834,7.5862,7.6157,7.6211,7.6367,7.6107,7.6909,7.693,7.6949,7.7093,7.713,7.7163,0,0,0,0,0,7.4928,7.4986,7.5468,7.5248,7.5308,7.5401,7.5535,7.5545,7.5631,7.5745,7.5761,7.564,7.5866,7.5913,7.6189,7.6342,7.607,7.6089,7.6923,7.6939,7.6954,7.7111,0,0,0,0,0,0,7.4942,7.4998,7.5481,7.55,7.5155,7.538,7.5416,7.5534,7.5715,7.5733,7.5568,7.5555,7.5872,7.5907,7.5944,7.6332,7.6039,7.606,7.6072,7.6935,7.6948,7.6959,0,0,0,0,0,0,7.4967,7.5015,7.5491,7.5371,7.5377,7.536,7.5392,7.5631,7.5718,7.5528,7.5522,7.556,7.5818,7.5905,7.5932,7.6304,7.6016,7.6036,7.6049,7.6058,7.6946,7.6956,0,0,0,0,0,0,7.4988,7.5029,7.5366,7.5371,7.5376,7.5595,7.5572,7.5884,7.5612,7.552,7.5588,7.5577,7.5817,7.5846,7.5925,7.6285,7.6299,7.6017,7.603,7.604,7.6046,0,0,0,0,0,0,0,7.5005,7.4724,7.5366,7.5371,7.5374,7.5679,7.5684,7.5689,7.5609,7.56,7.5591,7.5582,7.5906,7.5927,7.5949,7.6269,0,0,7.6015,7.6025,0,0,0,0,0,0,0,0,7.4707,7.472,7.5367,7.5371,7.5374,7.568,7.5684,7.5688,7.5608,7.56,7.5593,7.5586,7.5912,7.5929,7.5946,0,0,0,0,0,0,0,0,0,0,0,0,0,0,0,7.5367,7.537,0,7.568,7.5684,7.5687,7.5607,7.56,7.5594,7.5588,7.5916,7.5931,7.5945,0,0,0,0,0,0,0,0,0,0,0,0,0,0,0,0,0,0,0,0,0,0,0,0,0,0,0,0,0,0,0,0,0,0,0,0,0,0,0,0,0,0,0,0,0,0,0,0,0,0,0,0,0,0,0,0,0,0,0,0,0,0,0,0,0,0,0,0,0]}],[{"header":{"parameterUnit":"kt","parameterCategory":2,"dx":1,"dy":1,"la1":30.253999710083008,"la2":30.299108505249023,"lo1":-89.0895004272461,"lo2":-89.04439544677734,"nx":28,"ny":28,"refTime":"2022-09-22T21:00:00:Z","depth":0,"parameterNumber":2,"parameterNumberName":"V-component_of_WINDS"},"data":[1.3982,1.405,1.4047,1.4123,1.4133,1.4184,1.4202,1.4224,1.4241,1.4302,1.4337,1.4341,1.4357,1.4398,1.4435,1.4436,1.4453,1.4479,1.4476,1.4361,1.4345,1.433,1.4314,1.4482,1.4483,1.4596,1.4597,1.4598,1.3898,1.3909,1.3948,1.3984,1.4017,1.399,1.4017,1.4047,1.4094,1.4115,1.4149,1.4203,1.4245,1.4252,1.4292,1.4324,1.4314,1.4335,1.4334,1.4337,1.4214,1.4197,1.4343,1.4343,1.4343,1.4343,1.4343,1.4342,1.3745,1.3785,1.3805,1.3847,1.3864,1.3889,1.3927,1.3931,1.3969,1.401,1.3999,1.4052,1.4073,1.412,1.4135,1.4177,1.4153,1.4176,1.4182,1.4188,1.4195,1.4034,1.4183,1.4183,1.4182,1.4182,1.4182,0,1.3631,1.3626,1.3663,1.37,1.373,1.3758,1.3784,1.3807,1.3795,1.3827,1.3874,1.39,1.3953,1.3997,1.4033,1.4045,1.4021,1.4018,1.4034,1.4041,1.4042,1.4044,1.3844,1.4014,1.4013,1.4011,1.4011,1.401,1.3477,1.3525,1.3544,1.3571,1.3583,1.3627,1.3652,1.3637,1.3665,1.3694,1.3731,1.3774,1.3808,1.3884,1.3888,1.3928,1.3917,1.3982,1.3923,1.3927,1.392,1.3918,1.3923,1.3995,1.3997,1.3998,1.4,0,1.3391,1.3386,1.3458,1.3472,1.3477,1.3528,1.354,1.358,1.3579,1.3635,1.3647,1.3646,1.3692,1.3686,1.3738,1.3733,1.3818,1.3806,1.3811,1.3809,1.3867,1.3862,1.4057,1.4082,1.3906,1.3907,1.3909,0,1.3258,1.3321,1.3309,1.3352,1.3421,1.3405,1.3474,1.348,1.3498,1.3541,1.3512,1.3554,1.3539,1.358,1.3573,1.3641,1.365,1.3652,1.365,1.3655,1.3655,1.3671,1.3664,1.3641,1.364,1.3639,1.3638,0,1.3125,1.3192,1.3261,1.3275,1.3297,1.333,1.334,1.336,1.3385,1.3416,1.3432,1.347,1.3491,1.3521,1.3513,1.3473,1.3595,1.3538,1.3596,1.3597,1.3625,1.3624,1.3795,1.3637,1.3637,1.3636,1.3636,0,1.3018,1.3049,1.3149,1.3166,1.3185,1.323,1.3266,1.3303,1.3326,1.3324,1.3349,1.333,1.3387,1.3332,1.3412,1.3362,1.3385,1.3391,1.3395,1.3401,1.334,1.3439,1.3602,1.362,1.3405,1.3403,1.3401,0,1.2868,1.2967,1.2953,1.3049,1.3094,1.3058,1.3108,1.3129,1.3131,1.317,1.3173,1.3217,1.3174,1.3188,1.3228,1.3233,1.3297,1.3224,1.3282,1.3284,1.3278,1.3427,1.3454,1.3567,1.3376,1.3379,1.3381,0,1.2751,1.2776,1.2794,1.281,1.2834,1.2872,1.2929,1.2969,1.2996,1.3022,1.3071,1.3133,1.3103,1.3126,1.3114,1.3156,1.3253,1.3119,1.312,1.3145,1.3363,1.3388,1.3407,1.3236,1.3239,1.3241,1.3361,0,1.2592,1.264,1.2688,1.2724,1.2752,1.2811,1.2804,1.2834,1.282,1.2821,1.2891,1.2907,1.2949,1.2968,1.2955,1.3053,1.3036,1.3005,1.2952,1.3049,1.3089,1.3105,1.2893,1.2892,1.289,1.2889,0,0,1.245,1.2519,1.2503,1.2558,1.258,1.2543,1.2607,1.2625,1.2662,1.2679,1.2648,1.2739,1.2754,1.284,1.287,1.2887,1.2904,1.2871,1.3002,1.3015,1.3027,1.3069,1.3086,1.2887,1.2886,1.2886,1.2885,0,1.2391,1.2405,1.2468,1.2485,1.251,1.2508,1.2523,1.2542,1.2546,1.2614,1.2583,1.2625,1.2698,1.2718,1.2737,1.2859,1.2835,1.2872,1.2941,1.2989,1.3003,1.3016,1.3061,1.3077,1.2882,1.2882,1.2882,0,1.2275,1.2288,1.2318,1.2366,1.2383,1.243,1.2372,1.2424,1.246,1.2417,1.2486,1.2495,1.2521,1.2603,1.2639,1.2613,1.2772,1.2721,1.2729,1.2734,1.278,1.2798,1.2813,1.261,1.2609,1.2608,0,0,1.2225,1.227,1.228,1.2353,1.2366,1.2363,1.2388,1.2376,1.24,1.2409,1.242,1.2444,1.2486,1.2514,1.2554,1.2645,1.265,1.2687,1.27,1.2711,1.2721,1.277,1.2788,1.2604,1.2604,1.2604,0,0,1.2202,1.2216,1.2197,1.2281,1.2304,1.2319,1.2365,1.2343,1.2377,1.237,1.2354,1.2359,1.2436,1.2446,1.24,1.2535,1.2482,1.2493,1.2526,1.2542,1.2555,1.2552,1.2344,0,0,0,0,0,1.2137,1.2213,1.2196,1.2209,1.2271,1.2329,1.2337,1.2324,1.2287,1.2324,1.2329,1.23,1.2417,1.2376,1.239,1.2442,1.2559,1.2567,1.2575,1.2639,1.2656,1.267,0,0,0,0,0,0,1.2142,1.2158,1.2194,1.2213,1.2227,1.2326,1.226,1.2259,1.2283,1.2276,1.23,1.2301,1.2292,1.2368,1.2381,1.2431,1.2339,1.2563,1.2569,1.2575,1.2644,1.2658,1.267,0,0,0,0,0,1.2146,1.2159,1.2262,1.2212,1.2224,1.2226,1.2257,1.2256,1.2274,1.2282,1.2282,1.2263,1.2294,1.2304,1.2376,1.2425,1.2331,1.2335,1.2567,1.2572,1.2577,1.2651,0,0,0,0,0,0,1.2149,1.2158,1.2264,1.2267,1.2182,1.222,1.2225,1.2253,1.2278,1.2279,1.2244,1.2238,1.2296,1.2303,1.2311,1.2424,1.2324,1.2328,1.2331,1.2571,1.2575,1.2579,0,0,0,0,0,0,1.2151,1.2162,1.2265,1.2229,1.2227,1.2215,1.222,1.2279,1.2279,1.2238,1.2234,1.2241,1.2285,1.2303,1.2309,1.2403,1.2318,1.2323,1.2326,1.2328,1.2574,1.2578,0,0,0,0,0,0,1.2155,1.2164,1.2228,1.2227,1.2226,1.2261,1.2267,1.2332,1.2246,1.2238,1.2238,1.2235,1.2286,1.2291,1.2308,1.2399,1.2402,1.2318,1.2321,1.2324,1.2325,0,0,0,0,0,0,0,1.2159,1.2104,1.2245,1.2225,1.2224,1.2297,1.2298,1.2299,1.2246,1.2242,1.2239,1.2236,1.2292,1.2297,1.2302,1.2397,0,0,1.2318,1.232,0,0,0,0,0,0,0,0,1.21,1.2103,1.2245,1.2245,1.2246,1.2297,1.2298,1.2299,1.2245,1.2242,1.224,1.2238,1.2293,1.2297,1.2301,0,0,0,0,0,0,0,0,0,0,0,0,0,0,0,1.2245,1.2245,0,1.2297,1.2298,1.2298,1.2245,1.2243,1.224,1.2238,1.2294,1.2298,1.2301,0,0,0,0,0,0,0,0,0,0,0,0,0,0,0,0,0,0,0,0,0,0,0,0,0,0,0,0,0,0,0,0,0,0,0,0,0,0,0,0,0,0,0,0,0,0,0,0,0,0,0,0,0,0,0,0,0,0,0,0,0,0,0,0,0,0,0,0,0]}]]]